Home   Weather   Kunming   Past weeks
Flag for China

Past Weather in Kunming, Yunnan, China — Yesterday and Last 2 Weeks

Now
75 °F

Passing clouds.


Feels Like: 77 °F
Forecast: 77 / 64 °F
Wind: 6 mph from Southwest

Location: Kunming Airport

Current Time: Jul 18, 2019 at 9:11:52 pm

Latest Report: Jul 18, 2019 at 8:00 pm


Visibility: N/A

Pressure: 29.95 "Hg (24.05 "Hg at 1909m altitude)

Humidity: 61%

Dew Point: 61 °F

Location of KunmingLocation

Past Weather in Kunming — Graph

°F

Kunming Temperature Yesterday

Maximum temperature yesterday: 79 °F (at 2:00 pm)
Minimum temperature yesterday: 64 °F (at 12:00 am)
Average temperature yesterday: 70 °F

High & Low Weather Summary for the Past Weeks

 TemperatureHumidityPressure
High81 °F (Jul 18, 2:00 pm)100% (Jul 6, 6:00 am)30.07 "Hg (Jul 6, 6:00 am)
Low57 °F (Jul 9, 8:00 am)51% (Jul 17, 6:00 pm)29.89 "Hg (Jul 7, 6:00 pm)
Average67 °F83%29.99 "Hg
* Reported Jul 3 7:00 pm — Jul 18 7:00 pm, Kunming. Weather by CustomWeather, © 2019

Note: Actual official high and low records may vary slightly from our data, if they occured in-between our weather recording intervals... More about our weather records

Advertising

Kunming Weather History for the Previous 24 Hours

Scroll right to see more
 ConditionsComfort  
Time TempWeatherWind HumidityBarometerVisibility
7:00 pm
Thu, Jul 18
79 °FScattered clouds.10 mph54%29.92 "HgN/A
6:00 pm81 °FPassing clouds.10 mph51%29.92 "HgN/A
5:00 pm79 °FScattered clouds.10 mph54%29.92 "HgN/A
4:00 pm79 °FScattered clouds.10 mph58%29.95 "HgN/A
3:00 pm81 °FScattered clouds.13 mph54%29.95 "HgN/A
2:00 pm81 °FScattered clouds.6 mph54%29.98 "HgN/A
1:00 pm77 °FScattered clouds.6 mph57%29.98 "HgN/A
12:00 pm75 °FScattered clouds.6 mph65%30.01 "HgN/A
11:00 am72 °FBroken clouds.8 mph69%30.01 "HgN/A
10:00 am70 °FBroken clouds.8 mph78%30.01 "HgN/A
9:00 am68 °FScattered clouds.10 mph83%30.04 "HgN/A
8:00 am66 °FPassing clouds.10 mph88%30.04 "HgN/A
7:00 am63 °FSunny.8 mph94%30.01 "Hg10 mi
6:00 am63 °FPassing clouds.8 mph94%30.01 "HgN/A
5:00 am64 °FClear.10 mph88%30.01 "Hg10 mi
4:00 am63 °FClear.6 mph94%30.01 "Hg10 mi
3:00 am66 °FClear.8 mph83%30.01 "Hg10 mi
2:00 am64 °FClear.8 mph88%30.01 "Hg10 mi
1:00 am64 °FClear.8 mph88%30.04 "Hg10 mi
12:00 am66 °FClear.6 mph83%30.04 "Hg10 mi
11:00 pm
Wed, Jul 17
66 °FClear.8 mph83%30.01 "Hg10 mi
10:00 pm70 °FClear.8 mph73%29.98 "Hg10 mi
9:00 pm72 °FPassing clouds.8 mph69%29.98 "HgN/A
Weather by CustomWeather, © 2019

See weather overview